Location: Pinon Hills
(34.4429°N, 117.6403°W)
Time: 09:41:02
(UTC-07:00)

Amateur Radio Satellites - All Passes

Search period start: 30 October 2014 09:11
Search period end: 31 October 2014 09:11
Location: Pinon Hills, 34.4429°N, 117.6403°W

Satellite Date Start Highest point End Downlink Frequencies (MHz)
Time Altitude Azimuth
KITSAT 1 30 Oct 09:19:36 09:23:33 15° 101° (E) 09:27:29 435.175 FM
RS-15 30 Oct 09:27:58 09:33:49 16° 261° (W) 09:39:50 29.354 - 29.394 USB, Beacon 29.352 USB
UKube-1 30 Oct 09:50:03 09:53:38 25° 97° (E) 09:57:12 145.840 MHz, 145.915 MHz
ISS 30 Oct 09:58:17 10:01:32 59° 135° (SE) 10:04:49 145.800 FM
ZACube-1 30 Oct 09:58:57 09:59:50 11° 92° (E) 10:00:43 437.345 MHz
SO-50 30 Oct 10:22:12 10:25:25 20° 109° (ESE) 10:28:41 436.795 FM
Oscar 11 30 Oct 10:25:30 10:29:47 66° 101° (E) 10:34:03 145.825 FM, Beacon 2401.500 USB
HO-68 30 Oct 10:32:10 10:39:08 55° 290° (WNW) 10:46:05 435.675 MHz FM
FUNcube-1 30 Oct 10:39:30 10:43:21 35° 98° (E) 10:47:09 145.950 - 145.970 MHz USB
PCSat 30 Oct 10:45:53 10:48:58 15° 49° (NE) 10:52:02 145.825 MHz
KITSAT 1 30 Oct 11:09:44 11:17:49 90° 116° (ESE) 11:25:56 435.175 FM
UKube-1 30 Oct 11:26:12 11:29:41 24° 291° (WNW) 11:33:09 145.840 MHz, 145.915 MHz
ZACube-1 30 Oct 11:32:28 11:36:29 47° 286° (WNW) 11:40:27 437.345 MHz
ISS 30 Oct 11:36:26 11:38:29 15° 330° (NNW) 11:40:32 145.800 FM
SO-50 30 Oct 12:01:33 12:05:40 35° 305° (NW) 12:09:54 436.795 FM
Sapphire 30 Oct 12:05:42 12:11:06 66° 63° (ENE) 12:16:29 437.095 MHz 1200 baud AX-25 AFSK
FUNcube-1 30 Oct 12:17:00 12:19:24 15° 292° (WNW) 12:21:47 145.950 - 145.970 MHz USB
PCSat 30 Oct 12:27:31 12:32:56 73° 246° (WSW) 12:38:18 145.825 MHz
Oscar 16 30 Oct 12:41:03 12:44:59 23° 68° (ENE) 12:48:55 437.025 USB, Beacon 2401.1428
UOSAT-12 30 Oct 12:50:38 12:55:11 65° 116° (ESE) 12:59:50 437.025 FM, 437.400 FM
JAS-1B 30 Oct 13:05:47 13:11:03 36° 70° (ENE) 13:16:11 435.800 - 435.900 CW/SSB
KITSAT 1 30 Oct 13:08:38 13:14:15 20° 316° (NW) 13:19:55 435.175 FM
Uribyol 2 30 Oct 13:12:27 13:16:02 19° 66° (ENE) 13:19:38 436.500 FM
ITAMSAT 1 30 Oct 13:19:51 13:23:41 21° 67° (ENE) 13:27:31 435.822 SSB
AO-Echo 30 Oct 13:24:07 13:28:21 29° 69° (ENE) 13:32:42 ?
Oscar 19 30 Oct 13:31:58 13:37:05 73° 75° (ENE) 13:42:13 437.125 CW, 437.150 USB
Sapphire 30 Oct 13:51:25 13:53:53 13° 257° (WSW) 13:56:21 437.095 MHz 1200 baud AX-25 AFSK
AO-7 30 Oct 14:05:37 14:07:07 11° 50° (NE) 14:08:37 29.400 - 29.500 MHz
AO-27 30 Oct 14:05:39 14:10:46 62° 74° (ENE) 14:15:56 436.795 MHz FM
Gurwin Techsat 1B 30 Oct 14:15:43 14:20:35 38° 71° (ENE) 14:25:28 435.225 FM
Oscar 16 30 Oct 14:19:21 14:24:04 36° 262° (W) 14:28:48 437.025 USB, Beacon 2401.1428
TMSAT-1 30 Oct 14:22:59 14:27:39 33° 70° (ENE) 14:32:20 436.925 FM
UOSAT-12 30 Oct 14:33:16 14:35:46 14° 313° (NW) 14:38:18 437.025 FM, 437.400 FM
Uribyol 2 30 Oct 14:50:09 14:55:07 45° 260° (W) 15:00:08 436.500 FM
JAS-1B 30 Oct 14:57:20 15:01:51 23° 264° (W) 15:06:14 435.800 - 435.900 CW/SSB
ITAMSAT 1 30 Oct 14:57:58 15:02:51 40° 261° (W) 15:07:46 435.822 SSB
AO-Echo 30 Oct 15:02:54 15:07:01 27° 264° (W) 15:11:17 ?
Saudisat 1A 30 Oct 15:15:53 15:20:19 72° 60° (ENE) 15:24:42 436.775 MHz
Oscar 19 30 Oct 15:16:14 15:16:51 10° 269° (W) 15:17:29 437.125 CW, 437.150 USB
Uosat F 30 Oct 15:16:41 15:19:12 14° 64° (ENE) 15:21:44 435.120 FM
AO-27 30 Oct 15:48:19 15:50:37 13° 268° (W) 15:52:57 436.795 MHz FM
AO-7 30 Oct 15:50:07 15:58:11 60° 68° (ENE) 16:06:17 29.400 - 29.500 MHz
Gurwin Techsat 1B 30 Oct 15:56:34 16:00:36 22° 265° (W) 16:04:39 435.225 FM
TMSAT-1 30 Oct 16:03:11 16:07:31 26° 264° (W) 16:11:54 436.925 FM
ISS 30 Oct 16:30:26 16:32:44 17° 31° (NNE) 16:35:02 145.800 FM
JAS-2 30 Oct 16:33:45 16:38:48 26° 64° (ENE) 16:44:19 435.800 - 435.900 CW/SSB, 435.910 FM
Uosat F 30 Oct 16:52:29 16:57:26 59° 259° (WSW) 17:02:25 435.120 FM
Hamsat 30 Oct 17:03:45 17:06:44 19° 70° (ENE) 17:09:43 145.90 MHz
OPAL 30 Oct 17:22:40 17:26:35 23° 98° (E) 17:30:29 ?
AO-7 30 Oct 17:44:49 17:51:19 25° 264° (W) 17:57:52 29.400 - 29.500 MHz
ISS 30 Oct 18:06:23 18:09:37 48° 227° (SW) 18:12:50 145.800 FM
JAS-2 30 Oct 18:17:38 18:23:24 45° 263° (W) 18:29:56 435.800 - 435.900 CW/SSB, 435.910 FM
Oscar 10/S400 30 Oct 18:26:38 18:51:04 71° 189° (S) 04:31:54 145.825 - 145.975 CW/USB, Beacon 145.810 USB
SO-67 30 Oct 18:29:52 18:32:19 19° 72° (ENE) 18:34:46 435.3500 MHz FM
Hamsat 30 Oct 18:38:53 18:42:28 27° 263° (W) 18:46:04 145.90 MHz
AO-40 30 Oct 18:43:46 00:21:14 47° 145° (SE) 01:55:38 Beacon 2401.320
OPAL 30 Oct 19:01:04 19:05:27 32° 292° (WNW) 19:09:49 ?
KITSAT 1 30 Oct 19:07:48 19:14:13 25° 47° (NE) 19:20:36 435.175 FM
HO-68 30 Oct 19:13:44 19:16:35 13° 56° (NE) 19:19:25 435.675 MHz FM
STRAND 1 30 Oct 19:16:56 19:21:52 44° 99° (E) 19:26:44 ?
RS-15 30 Oct 19:23:15 19:30:21 20° 101° (E) 19:37:21 29.354 - 29.394 USB, Beacon 29.352 USB
SO-67 30 Oct 20:02:45 20:05:09 18° 265° (W) 20:07:33 435.3500 MHz FM
SO-50 30 Oct 20:35:51 20:40:43 76° 60° (ENE) 20:45:36 436.795 FM
UKube-1 30 Oct 20:43:15 20:45:40 15° 66° (ENE) 20:48:04 145.840 MHz, 145.915 MHz
HO-68 30 Oct 20:55:58 21:03:07 79° 73° (ENE) 21:10:19 435.675 MHz FM
STRAND 1 30 Oct 20:57:10 21:00:39 19° 294° (WNW) 21:04:09 ?
KITSAT 1 30 Oct 21:02:15 21:10:17 71° 247° (WSW) 21:18:16 435.175 FM
MaSat-1 30 Oct 21:02:46 21:04:04 11° 105° (ESE) 21:05:20 437.345 MHz
Oscar 11 30 Oct 21:17:12 21:21:02 32° 72° (ENE) 21:24:53 145.825 FM, Beacon 2401.500 USB
UOSAT-12 30 Oct 21:24:16 21:27:59 23° 51° (NE) 21:31:39 437.025 FM, 437.400 FM
RS-15 30 Oct 21:30:10 21:41:15 85° 298° (WNW) 21:52:14 29.354 - 29.394 USB, Beacon 29.352 USB
FUNcube-1 30 Oct 21:32:45 21:36:08 21° 70° (ENE) 21:39:28 145.950 - 145.970 MHz USB
UKube-1 30 Oct 22:17:20 22:21:27 41° 261° (W) 22:25:35 145.840 MHz, 145.915 MHz
ZACube-1 30 Oct 22:24:35 22:29:09 84° 77° (ENE) 22:33:39 437.345 MHz
MaSat-1 30 Oct 22:35:25 22:39:12 41° 295° (WNW) 22:42:40 437.345 MHz
HO-68 30 Oct 22:47:30 22:51:25 15° 268° (W) 22:55:22 435.675 MHz FM
Oscar 11 30 Oct 22:54:23 22:57:15 17° 266° (W) 23:00:08 145.825 FM, Beacon 2401.500 USB
UOSAT-12 30 Oct 23:03:55 23:08:12 36° 247° (WSW) 23:12:23 437.025 FM, 437.400 FM
FUNcube-1 30 Oct 23:08:16 23:12:17 30° 263° (W) 23:16:15 145.950 - 145.970 MHz USB
RS-15 30 Oct 23:47:05 23:55:21 24° 323° (NW) 00:03:41 29.354 - 29.394 USB, Beacon 29.352 USB
JAS-1B 31 Oct 00:53:01 00:57:20 16° 94° (E) 01:01:59 435.800 - 435.900 CW/SSB
Sapphire 31 Oct 01:03:44 01:06:19 14° 103° (ESE) 01:08:54 437.095 MHz 1200 baud AX-25 AFSK
PCSat 31 Oct 01:23:30 01:27:48 25° 107° (ESE) 01:32:06 145.825 MHz
AO-Echo 31 Oct 01:36:25 01:38:50 13° 91° (E) 01:41:14 ?
Oscar 19 31 Oct 01:47:33 01:52:11 34° 98° (E) 01:56:47 437.125 CW, 437.150 USB
RS-15 31 Oct 02:12:04 02:13:57 11° 359° (N) 02:15:51 29.354 - 29.394 USB, Beacon 29.352 USB
AO-27 31 Oct 02:22:49 02:27:21 29° 97° (E) 02:31:50 436.795 MHz FM
Oscar 16 31 Oct 02:34:10 02:39:17 78° 285° (WNW) 02:44:24 437.025 USB, Beacon 2401.1428
Gurwin Techsat 1B 31 Oct 02:36:13 02:40:07 21° 94° (E) 02:43:59 435.225 FM
JAS-1B 31 Oct 02:40:47 02:48:08 87° 285° (WNW) 02:56:57 435.800 - 435.900 CW/SSB
TMSAT-1 31 Oct 02:43:17 02:46:42 17° 93° (E) 02:50:06 436.925 FM
Sapphire 31 Oct 02:43:45 02:49:06 64° 298° (WNW) 02:54:30 437.095 MHz 1200 baud AX-25 AFSK
PCSat 31 Oct 03:05:57 03:10:57 38° 302° (WNW) 03:15:59 145.825 MHz
Uribyol 2 31 Oct 03:06:17 03:11:30 87° 104° (ESE) 03:16:40 436.500 FM
AO-Echo 31 Oct 03:12:42 03:17:57 63° 286° (WNW) 03:23:07 ?
ITAMSAT 1 31 Oct 03:14:08 03:19:22 84° 284° (WNW) 03:24:34 435.822 SSB
Oscar 19 31 Oct 03:27:16 03:31:18 24° 292° (WNW) 03:35:19 437.125 CW, 437.150 USB
PANSAT 31 Oct 03:43:23 03:46:06 19° 163° (SSE) 03:48:50 not established
AO-7 31 Oct 03:56:49 04:03:12 24° 96° (E) 04:09:32 29.400 - 29.500 MHz
AO-27 31 Oct 04:02:20 04:06:43 28° 291° (WNW) 04:11:06 436.795 MHz FM
Gurwin Techsat 1B 31 Oct 04:15:14 04:20:11 41° 289° (WNW) 04:25:07 435.225 FM
TMSAT-1 31 Oct 04:21:44 04:26:49 48° 287° (WNW) 04:31:52 436.925 FM
RS-15 31 Oct 04:24:27 04:32:46 23° 37° (NE) 04:41:15 29.354 - 29.394 USB, Beacon 29.352 USB
OPAL 31 Oct 04:34:02 04:38:26 30° 68° (ENE) 04:42:48 ?
JAS-1B 31 Oct 04:34:13 04:38:02 15° 298° (WNW) 04:42:09 435.800 - 435.900 CW/SSB
Uosat F 31 Oct 05:03:47 05:08:45 57° 101° (E) 05:13:41 435.120 FM
Saudisat 1A 31 Oct 05:18:53 05:23:01 43° 114° (ESE) 05:27:10 436.775 MHz
PANSAT 31 Oct 05:22:21 05:25:48 32° 176° (S) 05:29:15 not established
JAS-2 31 Oct 05:30:24 05:37:32 37° 96° (E) 05:44:20 435.800 - 435.900 CW/SSB, 435.910 FM
AO-7 31 Oct 05:48:11 05:56:23 64° 291° (WNW) 06:04:35 29.400 - 29.500 MHz
OPAL 31 Oct 06:12:54 06:17:13 27° 261° (W) 06:21:31 ?
Hamsat 31 Oct 06:27:09 06:31:21 64° 101° (E) 06:35:34 145.90 MHz
STRAND 1 31 Oct 06:29:20 06:34:11 45° 72° (ENE) 06:39:04 ?
RS-15 31 Oct 06:35:49 06:47:07 80° 61° (ENE) 06:58:55 29.354 - 29.394 USB, Beacon 29.352 USB
Uosat F 31 Oct 06:44:20 06:47:00 15° 296° (WNW) 06:49:40 435.120 FM
Saudisat 1A 31 Oct 06:59:48 07:02:45 18° 310° (NW) 07:05:44 436.775 MHz
PANSAT 31 Oct 07:02:14 07:05:35 29° 188° (S) 07:08:56 not established
JAS-2 31 Oct 07:15:12 07:22:26 42° 292° (WNW) 07:29:26 435.800 - 435.900 CW/SSB, 435.910 FM
SO-67 31 Oct 07:28:20 07:31:31 34° 98° (E) 07:34:40 435.3500 MHz FM
AO-7 31 Oct 07:45:01 07:47:32 12° 310° (NW) 07:50:04 29.400 - 29.500 MHz
STRAND 1 31 Oct 08:10:09 08:13:32 18° 266° (W) 08:16:56 ?
MaSat-1 31 Oct 08:23:21 08:25:37 37° 250° (WSW) 08:27:48 437.345 MHz
HO-68 31 Oct 08:29:40 08:34:06 17° 93° (E) 08:38:30 435.675 MHz FM
PANSAT 31 Oct 08:43:12 08:45:13 14° 200° (SSW) 08:47:14 not established
RS-15 31 Oct 08:50:07 08:58:18 24° 258° (WSW) 09:06:46 29.354 - 29.394 USB, Beacon 29.352 USB
SO-67 31 Oct 09:03:50 09:04:05 10° 292° (WNW) 09:04:20 435.3500 MHz FM
